This is the latest recevied weather packets stored in our database for station/object KC2TER. If no packets are shown the sender has not sent any weather packets the latest 10 day(s).
| Time | Temp. | Humidity | Pressure | Rain* | Wind** | Luminosity | Snow |
|---|---|---|---|---|---|---|---|
| 1777814916 | 9.44° C | 57% | 1012.6 hPa | 0 mm | - | 208 W/m² | - |
| 1777814612 | 8.89° C | 56% | 1012.4 hPa | 0 mm | - | 111 W/m² | - |
| 1777814310 | 8.89° C | 58% | 1012.5 hPa | 0 mm | - | 181 W/m² | - |
| 1777814006 | 8.89° C | 56% | 1012.6 hPa | 0 mm | - | 209 W/m² | - |
| 1777813703 | 9.44° C | 57% | 1012.5 hPa | 0 mm | - | 244 W/m² | - |
| 1777813401 | 9.44° C | 57% | 1012.4 hPa | 0 mm | - | 220 W/m² | - |
| 1777813098 | 9.44° C | 57% | 1012.4 hPa | 0 mm | - | 115 W/m² | - |
| 1777812796 | 8.89° C | 57% | 1012.5 hPa | 0 mm | - | 139 W/m² | - |
| 1777812492 | 8.89° C | 58% | 1012.4 hPa | 0 mm | - | 100 W/m² | - |
| 1777812190 | 8.33° C | 58% | 1012.5 hPa | 0 mm | - | 109 W/m² | - |
| 1777811888 | 8.33° C | 60% | 1012.2 hPa | 0 mm | - | 177 W/m² | - |
| 1777811587 | 8.33° C | 59% | 1012.2 hPa | 0 mm | - | 117 W/m² | - |
| 1777811282 | 8.33° C | 59% | 1012.2 hPa | 0 mm | - | 160 W/m² | - |
| 1777810980 | 8.33° C | 59% | 1012.3 hPa | 0 mm | - | 131 W/m² | - |
| 1777810676 | 8.33° C | 58% | 1012.4 hPa | 0 mm | - | 136 W/m² | - |
| 1777810373 | 8.33° C | 59% | 1012.2 hPa | 0 mm | - | 142 W/m² | - |
| 1777810068 | 7.78° C | 58% | 1012.3 hPa | 0 mm | - | 116 W/m² | - |
| 1777809766 | 7.78° C | 59% | 1012.2 hPa | 0 mm | - | 104 W/m² | - |
| 1777809463 | 7.78° C | 59% | 1012.1 hPa | 0 mm | - | 104 W/m² | - |
| 1777809161 | 7.78° C | 58% | 1012.1 hPa | 0 mm | - | 97 W/m² | - |
| 1777808859 | 7.78° C | 59% | 1012 hPa | 0 mm | - | 82 W/m² | - |
| 1777808556 | 7.78° C | 60% | 1012 hPa | 0 mm | - | 68 W/m² | - |
| 1777808253 | 7.78° C | 59% | 1012.2 hPa | 0 mm | - | 50 W/m² | - |
| 1777807952 | 7.78° C | 58% | 1012 hPa | 0 mm | - | 44 W/m² | - |
| 1777807649 | 7.78° C | 59% | 1011.8 hPa | 0 mm | - | 50 W/m² | - |
* Rain latest hour (hover to see other rain measurements)
** Current wind speed in m/s (hover to see current wind gust speed)